Tucson, AZ

1:42 PM MST on July 26, 2016 (GMT -0700)
Davis-Monthan Air Force Base

Weather History for KDMA - April, 2013

Change the Weather History Date:

Thursday, April 18, 2013

  Actual Average Record
Temperature  
Mean Temperature 54 °F -  
Max Temperature 68 °F 79 °F 98 °F (1989)
Min Temperature 40 °F 51 °F 38 °F (1975)
Degree Days  
Heating Degree Days 11    
Growing Degree Days 4 (Base 50)    
Moisture  
Dew Point 9 °F    
Average Humidity 17    
Maximum Humidity 27    
Minimum Humidity 7    
Precipitation  
Precipitation 0.00 in - - ()
Sea Level Pressure  
Sea Level Pressure 30.03 in    
Wind  
Wind Speed 6 mph (WNW)    
Max Wind Speed 17 mph    
Max Gust Speed 23 mph    
Visibility 10 miles    
Events      
Averages and records for this station are not official NWS values.
T = Trace of Precipitation, MM = Missing Value Source: NWS Daily Summary

Daily Weather History Graph

Daily Weather History Graph

Search for Another Location

Airport or City:

Trip Planner

Search our weather history database for the weather conditions in past years. The results will help you decide how hot, cold, wet, or windy it might be!

Date:

Astronomy

Apr. 18, 2013 Rise Set
Actual Time 5:50 AM MST 6:55 PM MST
Civil Twilight 5:25 AM MST 7:20 PM MST
Nautical Twilight 4:55 AM MST 7:50 PM MST
Astronomical Twilight 4:24 AM MST 8:21 PM MST
Moon 12:09 PM MST (4/18) 1:07 AM MST (4/18)
Length of Visible Light 13h 55m
Length of Day
13h 04m
First Quarter, 53% of the Moon is Illuminated
Apr 18
First Quarter
Apr 25
Full
May 2
Last Quarter
May 9
New
May 17
First Quarter

Hourly Weather History & Observations

Time (MST) Temp. Windchill Dew Point Humidity Pressure Visibility Wind Dir Wind Speed Gust Speed Precip Events Conditions
12:58 AM 47.5 °F - 10.0 °F 22% 29.99 in 10.0 mi SE 3.5 mph - N/A   Clear
1:58 AM 45.5 °F 42.5 °F 9.9 °F 24% 29.98 in 10.0 mi SSW 5.8 mph - N/A   Clear
2:58 AM 45.0 °F 42.6 °F 9.5 °F 24% 29.98 in 10.0 mi South 4.6 mph - N/A   Clear
3:58 AM 43.0 °F - 9.3 °F 25% 29.99 in 10.0 mi Calm Calm - N/A   Clear
4:58 AM 40.8 °F 35.6 °F 8.6 °F 27% 30.01 in 10.0 mi SE 8.1 mph - N/A   Clear
5:58 AM 40.8 °F 36.9 °F 8.6 °F 27% 30.01 in 10.0 mi SSE 5.8 mph - N/A   Clear
6:58 AM 45.5 °F 44.2 °F 10.2 °F 24% 30.03 in 10.0 mi WSW 3.5 mph - N/A   Clear
7:58 AM 50.4 °F - 12.0 °F 22% 30.06 in 10.0 mi NNW 5.8 mph - N/A   Clear
8:58 AM 53.2 °F - 12.2 °F 20% 30.06 in 10.0 mi North 3.5 mph - N/A   Clear
9:58 AM 58.3 °F - 12.4 °F 16% 30.06 in 10.0 mi East 4.6 mph - N/A   Clear
10:58 AM 60.6 °F - 10.8 °F 14% 30.06 in 10.0 mi Variable 5.8 mph - N/A   Clear
11:58 AM 62.8 °F - 5.2 °F 10% 30.05 in 10.0 mi West 10.4 mph - N/A   Clear
12:58 PM 64.8 °F - 4.8 °F 9% 30.04 in 10.0 mi NNW 5.8 mph - N/A   Clear
1:58 PM 67.1 °F - 6.6 °F 9% 30.02 in 10.0 mi WNW 8.1 mph - N/A   Clear
2:58 PM 68.4 °F - 5.0 °F 8% 30.00 in 10.0 mi NW 11.5 mph - N/A   Clear
3:58 PM 68.0 °F - 4.1 °F 8% 30.00 in 10.0 mi West 9.2 mph - N/A   Clear
4:58 PM 68.5 °F - 2.3 °F 7% 30.01 in 10.0 mi NW 17.3 mph 23.0 mph N/A   Clear
5:58 PM 66.7 °F - 5.4 °F 9% 30.03 in 10.0 mi NW 11.5 mph - N/A   Clear
6:58 PM 63.7 °F - 7.2 °F 11% 30.03 in 9.0 mi NW 15.0 mph 21.9 mph N/A   Clear
7:58 PM 61.3 °F - 9.5 °F 13% 30.06 in 10.0 mi NW 8.1 mph - N/A   Clear
8:58 PM 59.7 °F - 10.6 °F 14% 30.07 in 10.0 mi NW 10.4 mph - N/A   Clear
9:58 PM 57.2 °F - 11.5 °F 16% 30.08 in 10.0 mi NW 4.6 mph - N/A   Clear
10:58 PM 56.1 °F - 12.2 °F 18% 30.08 in 10.0 mi WSW 3.5 mph - N/A   Clear
11:58 PM 50.9 °F - 11.5 °F 21% 30.09 in 10.0 mi SE 4.6 mph - N/A   Clear